Theta_e
360 361 363 361 362 363 361 362 362 360 359 355 355 356 357 357 357 357 358 357 355 354 354 354 354 354 353 352 352 354 356 356 356 355 356 358 361 359 357 357 358 355 350 350 352 354 352 352 354 352 353 353 355 355 355 354 356 356 357 357 356 356 356 355 356 356 356 356 356 355 355 354 354 354 354 354 354 354 354 354 354 354 353 353 353
361 362 363 362 363 364 363 362 361 360 358 356 355 356 355 356 358 357 356 356 354 355 354 353 352 352 353 352 352 353 355 354 355 354 356 357 361 360 356 357 357 355 351 350 350 351 352 350 352 353 354 354 355 356 356 355 355 355 356 357 357 357 356 356 356 356 356 356 356 356 356 355 354 354 354 354 354 354 355 355 354 354 354 354 354
362 363 364 363 363 364 363 364 361 360 359 355 357 357 357 355 356 354 354 354 353 353 353 352 351 350 351 352 352 353 354 355 353 353 353 355 358 360 360 357 357 357 352 352 352 351 353 353 353 354 354 353 354 356 357 356 355 355 356 356 357 357 356 356 356 356 356 356 356 356 356 356 355 355 354 354 355 354 355 355 355 355 355 355 355
365 365 363 363 364 364 364 362 361 360 359 357 357 357 358 356 358 356 356 354 354 353 353 349 348 348 350 349 351 351 351 351 349 349 351 353 356 358 359 358 357 357 356 355 353 353 353 354 354 354 355 355 356 356 357 356 356 355 355 356 357 356 356 356 356 357 357 357 357 357 357 357 356 356 355 354 355 355 355 355 355 355 355 355 356
366 365 363 362 363 363 363 361 361 360 361 359 357 357 356 356 356 356 355 354 352 353 353 349 347 348 349 349 350 350 352 351 351 350 349 350 352 353 355 356 357 357 357 356 355 355 355 355 355 354 355 355 356 356 356 356 356 356 356 355 356 357 357 356 356 356 356 357 357 357 357 357 357 357 356 356 355 355 355 355 355 355 355 356 356
365 364 363 362 362 362 361 359 358 359 361 358 356 355 355 355 355 354 352 352 351 352 350 349 348 349 349 350 351 351 351 349 348 349 350 350 351 353 352 355 358 359 358 357 355 355 356 356 355 355 355 356 356 356 356 357 357 356 356 356 356 356 357 357 356 356 356 357 357 357 357 357 357 357 357 357 357 356 356 356 356 356 355 355 356
365 364 363 362 361 360 358 356 357 359 359 359 357 357 355 354 352 350 351 352 352 352 351 349 349 350 351 350 349 350 351 349 350 350 350 352 354 352 354 355 354 357 358 357 356 355 355 355 356 356 355 355 355 356 356 357 357 356 357 356 356 356 356 357 357 356 356 357 357 357 357 358 358 358 358 357 357 357 357 357 356 356 356 356 356
365 364 362 362 360 358 358 359 358 358 359 359 358 355 355 353 352 351 349 350 351 350 350 349 350 350 351 350 349 350 349 349 350 349 349 352 351 353 354 357 357 357 357 358 360 360 355 356 356 356 355 355 355 356 357 357 356 356 356 357 357 356 355 355 356 357 356 356 356 358 357 358 358 358 358 357 357 358 357 357 357 357 357 356 357
365 365 363 361 359 358 358 357 359 357 356 357 355 354 353 350 352 352 351 348 348 348 349 349 349 350 350 349 348 350 349 350 349 349 351 351 351 349 353 355 356 353 358 358 359 359 357 355 356 356 356 355 355 355 356 357 358 357 357 358 356 355 353 352 351 354 357 356 355 354 357 357 357 358 358 358 358 357 358 358 357 358 357 357 357
361 360 360 359 357 356 356 359 358 357 356 354 353 353 353 352 351 352 351 350 348 347 347 347 347 347 349 347 349 348 348 348 350 350 350 349 350 351 352 353 354 355 354 356 354 357 358 357 357 357 356 357 356 356 356 356 357 358 356 355 352 351 351 351 352 353 354 355 356 356 356 355 357 358 358 358 358 358 357 357 357 358 358 358 358
359 358 358 359 357 357 358 358 356 355 354 352 351 352 352 352 350 350 351 350 348 348 348 347 346 346 347 348 349 349 349 348 350 347 347 346 347 348 345 350 352 355 359 358 357 358 358 362 361 361 359 356 356 356 357 357 357 357 357 355 354 353 353 354 351 351 353 355 354 354 356 356 355 354 358 358 358 357 357 357 358 358 358 358 358
358 357 358 358 358 357 356 356 355 354 353 351 350 351 350 350 350 349 348 349 349 348 349 347 347 347 346 348 347 347 348 346 347 347 347 346 344 344 342 346 350 351 353 357 357 357 359 360 360 359 359 356 354 354 354 354 354 355 356 356 355 354 355 355 355 353 353 354 354 353 354 354 356 354 353 356 358 357 356 356 357 358 358 358 357
358 358 358 357 358 358 357 354 354 353 353 352 351 350 351 349 348 349 347 346 347 348 348 347 344 343 347 344 344 347 346 346 344 344 343 343 340 340 341 342 344 345 347 349 350 352 354 355 354 355 355 355 354 351 350 350 352 353 353 354 355 355 356 356 355 354 354 354 352 351 350 353 355 356 356 355 355 356 357 356 356 357 358 358 358
358 359 358 357 358 356 354 353 352 352 353 353 351 350 350 348 348 346 348 344 344 347 347 345 340 337 336 336 338 342 345 342 340 339 339 337 338 339 340 339 339 342 344 344 345 346 348 350 351 352 352 352 352 352 352 353 352 350 351 352 352 353 355 355 354 353 353 353 353 350 349 349 354 354 355 356 356 356 355 356 356 356 357 357 357
359 359 357 356 357 356 353 355 354 354 352 350 351 349 349 348 347 345 343 345 345 347 347 346 338 340 339 335 332 332 338 339 339 338 336 336 335 334 336 336 338 343 345 342 341 344 344 347 348 349 351 351 350 350 351 350 350 350 351 351 352 353 354 355 354 354 352 351 353 351 348 349 350 352 353 354 354 355 356 355 355 356 356 357 357
359 358 359 358 358 355 354 354 354 354 352 350 349 349 349 348 346 346 345 340 340 342 347 346 343 340 332 331 331 331 325 330 334 336 336 334 332 332 334 334 336 341 342 338 338 342 344 344 345 347 348 349 350 349 349 350 349 349 349 351 351 351 352 353 352 351 352 352 352 351 351 352 350 350 353 354 355 355 355 355 355 355 356 356 356
360 360 358 358 356 355 354 355 354 352 352 350 349 350 350 349 349 346 345 343 339 341 344 345 343 345 339 334 330 330 326 328 331 334 333 331 329 329 334 332 335 339 340 340 342 342 341 341 344 344 345 346 347 347 349 349 350 350 351 349 348 348 349 352 352 351 351 352 352 352 352 351 350 351 353 354 354 354 355 355 355 355 355 356 356
360 359 358 357 356 356 356 354 352 352 352 352 351 351 350 350 349 348 346 346 343 340 340 344 344 344 345 342 338 332 331 333 332 325 335 332 333 333 334 330 335 338 339 338 338 339 339 338 340 340 341 341 340 342 342 342 343 345 348 348 344 344 346 347 349 352 350 350 351 351 351 352 352 353 353 353 354 354 354 353 354 355 355 356 356
359 358 357 357 357 357 356 354 356 354 355 353 351 351 349 350 350 349 347 346 344 340 340 340 343 343 343 343 342 341 340 335 327 328 323 330 329 326 326 331 333 332 332 334 334 336 337 339 338 336 338 338 338 338 340 339 338 340 342 340 340 341 341 342 343 344 347 349 350 351 351 351 352 353 353 353 354 354 354 355 354 354 354 356 356
358 358 357 357 357 357 357 357 354 352 353 353 352 352 351 351 350 349 348 347 346 342 340 341 338 338 342 340 339 340 340 338 335 331 325 324 327 330 329 328 330 329 330 329 328 334 337 338 337 337 337 337 337 337 338 337 338 340 339 338 339 339 338 337 339 341 343 344 345 347 348 350 351 351 352 354 354 355 355 355 355 354 354 356 356
359 358 357 357 357 358 357 354 351 351 354 350 348 350 351 350 350 348 347 347 347 345 343 341 341 337 340 340 340 339 338 336 336 335 331 327 324 322 326 332 333 329 329 332 333 334 334 334 336 335 336 336 337 336 335 336 336 338 336 337 337 337 336 336 337 338 339 340 341 342 343 345 347 350 351 352 353 353 354 354 355 356 355 356 356
357 358 359 359 357 355 353 351 350 348 349 346 347 348 349 348 348 347 348 346 347 346 344 344 343 341 340 340 338 337 337 336 335 334 333 331 324 324 326 326 324 328 332 327 331 333 335 334 335 334 333 334 335 335 335 335 335 335 335 336 336 336 334 334 335 336 336 336 336 338 340 341 343 344 347 349 350 352 353 354 355 356 356 356 357
356 357 357 356 355 354 349 349 350 351 350 347 346 344 344 345 346 348 347 345 346 346 345 344 345 343 342 340 337 335 335 331 333 335 334 331 329 325 324 325 326 325 331 332 334 332 335 336 335 334 335 334 334 335 334 335 334 334 334 334 335 335 334 333 333 334 334 334 335 336 336 337 339 340 342 345 347 349 351 352 354 354 356 356 357
354 352 351 349 353 352 351 351 351 349 347 347 346 345 344 345 346 346 345 345 346 346 346 344 344 343 342 338 337 337 337 336 335 336 335 332 331 329 328 329 329 330 331 333 335 333 332 332 332 333 333 332 334 336 335 337 336 332 334 334 334 334 333 332 333 333 332 332 332 333 334 335 336 337 339 340 342 345 347 350 351 353 354 355 356
349 348 348 350 352 352 351 350 349 349 348 347 347 347 348 346 346 345 345 345 344 345 343 343 344 342 339 340 340 339 337 339 338 336 336 336 333 330 328 329 325 325 331 330 327 330 331 331 333 334 332 334 334 337 337 335 335 333 333 335 334 334 333 332 332 332 332 331 332 332 333 334 334 335 336 337 339 340 343 346 348 350 352 353 355
346 347 347 350 351 351 351 349 349 349 349 348 347 348 348 347 346 345 343 345 345 346 345 344 345 344 344 340 339 339 338 339 339 338 335 334 332 330 329 330 328 324 328 330 333 326 329 332 333 337 335 334 334 335 336 333 335 333 333 334 336 335 333 333 332 331 331 331 331 332 332 333 333 333 333 334 335 336 338 341 344 346 349 351 352
347 350 351 352 351 351 350 348 349 349 348 347 346 348 348 348 347 346 345 345 345 345 343 342 341 341 343 343 341 340 339 341 340 338 338 336 333 332 330 325 324 325 325 328 330 329 326 330 332 332 336 337 336 336 336 335 333 333 334 338 339 336 334 333 332 331 331 331 332 332 331 331 331 331 331 332 332 334 335 337 339 341 344 346 347
350 351 350 350 350 349 350 348 349 347 348 348 346 344 347 346 346 346 344 345 345 345 344 344 341 342 342 343 345 340 341 340 341 341 342 339 337 337 334 330 324 321 324 323 325 327 331 328 331 333 333 335 336 336 335 333 334 333 334 338 338 338 335 333 332 331 330 331 331 331 330 330 330 330 330 331 331 331 332 334 335 337 340 343 345
349 349 350 351 351 349 348 346 348 348 347 348 347 347 348 346 344 345 344 343 346 346 345 344 344 340 342 342 342 342 343 345 344 343 343 343 341 340 338 332 331 324 321 321 324 323 328 328 325 331 335 335 335 336 337 336 334 334 335 336 337 338 335 332 330 330 331 331 330 329 329 329 329 330 330 330 330 330 331 331 332 334 336 338 340
347 348 349 349 350 349 347 347 346 346 346 345 347 347 347 344 344 345 343 346 345 346 346 345 343 343 342 342 343 341 343 344 342 344 344 344 342 340 339 337 333 325 324 321 323 328 327 330 329 328 335 336 335 334 334 335 334 335 335 336 336 337 333 331 330 331 330 329 328 327 327 328 328 328 328 328 328 329 330 330 331 332 334 336 338
348 348 348 348 348 348 348 346 347 347 347 345 347 346 346 344 345 343 345 347 344 343 344 344 342 344 344 342 344 343 344 344 344 343 343 343 341 341 339 337 334 332 326 324 321 327 331 327 330 332 332 334 334 334 334 335 334 335 334 335 336 335 334 334 331 330 329 328 327 326 326 325 326 327 326 327 328 328 329 330 330 331 332 334 336
346 347 347 346 347 345 344 342 344 345 345 344 345 345 346 344 343 340 341 345 343 342 340 342 343 344 344 342 343 343 344 343 342 342 342 343 342 339 338 337 336 333 331 327 323 324 330 330 330 332 334 333 335 334 335 335 335 333 335 335 336 334 337 337 333 330 328 327 326 326 325 324 325 326 326 327 327 328 329 329 330 331 332 333 334
346 346 346 346 347 345 344 344 343 344 345 344 345 346 345 344 345 343 344 344 342 342 343 342 344 344 343 342 343 344 345 343 341 341 341 342 341 339 338 336 333 333 331 328 324 325 329 333 331 330 333 334 333 335 333 334 334 335 335 337 338 337 337 336 334 331 329 327 326 325 324 324 324 324 325 326 326 328 328 329 329 329 330 330 331
345 343 345 345 346 345 343 345 345 345 345 347 344 345 343 343 342 343 342 344 344 342 343 342 342 343 344 343 343 343 345 344 342 341 341 340 340 338 337 336 334 333 334 328 326 325 324 330 329 331 331 333 329 335 333 333 333 335 335 334 336 337 337 335 332 331 329 327 325 324 324 323 324 324 324 325 326 326 327 327 327 326 327 327 327
343 343 344 343 343 344 343 343 344 344 345 345 345 344 343 343 341 341 342 342 342 341 340 340 340 343 343 343 340 341 345 343 342 341 341 341 340 338 338 337 336 335 336 335 329 325 325 326 330 329 329 330 330 331 334 335 334 333 332 333 334 334 336 335 333 331 329 327 325 324 323 323 323 323 323 324 324 324 324 323 323 324 324 324 324
338 340 340 341 341 342 341 341 342 343 343 343 343 343 343 343 342 342 343 343 342 341 340 340 340 343 341 340 340 340 343 341 341 340 341 341 340 339 338 338 337 336 336 335 334 328 326 324 328 329 329 328 329 332 332 332 332 332 332 333 334 333 334 335 333 331 329 326 325 323 323 322 322 322 322 322 322 321 321 320 321 321 321 321 322
338 337 337 339 340 339 338 339 341 341 342 343 343 343 343 343 343 342 343 344 343 342 342 341 341 342 341 340 339 342 342 339 339 339 340 340 340 338 337 337 337 337 336 335 333 332 327 325 326 329 330 329 329 330 330 328 328 330 332 331 331 332 333 334 331 330 328 326 325 324 324 323 323 323 322 322 322 321 321 320 320 320 320 320 320
336 335 335 336 337 338 339 340 341 342 343 344 344 343 342 342 343 342 342 343 342 342 342 342 343 343 341 341 341 342 341 339 338 339 340 340 340 339 337 337 336 337 336 336 334 332 329 326 326 325 328 326 327 327 330 329 327 325 327 328 330 331 330 329 330 329 329 329 329 329 326 325 325 324 323 323 322 321 321 320 320 319 318 318 316
333 331 333 334 337 337 339 339 340 341 342 343 343 343 343 344 343 343 342 342 342 342 343 342 341 342 342 342 342 342 341 340 339 338 339 340 339 338 338 338 338 337 336 335 334 331 329 327 326 327 326 327 326 324 328 330 329 326 324 324 324 327 328 327 326 328 329 329 328 327 326 326 325 325 322 321 321 321 321 320 319 318 318 316 315
333 333 333 332 334 336 338 338 340 342 342 342 342 342 343 343 343 342 343 341 341 341 343 343 342 340 342 341 339 340 342 342 341 340 340 339 338 337 337 338 337 336 335 332 333 329 327 327 325 324 325 325 325 327 328 328 326 325 326 324 322 324 325 326 326 325 326 326 326 327 327 327 326 325 322 322 322 322 321 322 322 322 320 318 317
333 333 333 333 333 335 337 339 340 340 340 340 341 342 342 343 343 342 342 342 341 341 342 341 342 342 342 342 341 340 342 341 338 336 335 334 336 335 336 337 336 335 334 333 333 330 327 325 324 325 324 324 324 324 323 323 322 322 325 325 323 324 325 323 325 326 326 324 325 325 326 327 327 328 328 328 328 327 325 326 326 327 324 320 319
333 335 334 334 334 335 337 338 339 340 340 341 335 328 332 342 343 343 342 342 342 342 341 340 340 341 341 340 341 338 337 334 332 330 326 324 324 330 334 335 335 337 334 331 331 331 329 325 323 323 322 322 323 324 323 324 326 327 325 324 322 322 324 323 323 325 326 325 323 323 325 328 326 325 326 326 327 327 326 326 327 326 325 322 322
333 334 334 333 333 334 335 336 337 338 339 339 328 326 326 327 337 343 342 342 343 342 341 340 340 340 341 341 342 341 337 334 335 329 327 325 325 323 322 323 325 333 333 331 331 331 328 326 325 324 322 322 324 325 325 324 325 324 324 324 322 321 320 317 315 321 327 325 323 322 322 326 326 324 325 326 326 326 325 324 324 324 322 321 321
332 333 333 333 335 336 336 336 337 339 340 330 325 324 325 325 327 339 342 341 341 341 341 340 341 340 340 340 341 342 341 339 338 337 335 330 326 324 323 322 322 321 322 329 329 328 329 327 326 324 325 324 325 326 324 324 323 324 324 324 322 321 319 318 318 317 324 326 322 320 319 325 326 324 324 325 326 327 326 323 322 322 321 321 321
332 331 332 334 335 337 337 337 337 338 339 329 324 323 323 323 324 328 338 342 341 341 341 341 341 341 341 339 338 339 340 334 331 335 338 338 335 328 324 323 323 322 321 320 320 327 331 328 326 324 324 324 324 325 326 326 327 324 322 320 321 321 321 319 318 318 322 325 322 319 317 321 324 322 321 324 325 326 324 323 322 322 321 320 320
332 332 334 335 336 337 337 338 339 339 339 329 323 320 320 321 322 326 337 341 343 342 342 342 341 340 338 334 334 335 337 337 338 338 338 337 336 336 335 335 334 333 328 321 318 317 321 325 325 323 325 327 325 326 328 327 324 320 319 319 320 319 318 318 320 320 322 324 320 318 316 319 322 321 320 322 324 324 325 323 321 321 321 320 320
332 332 334 335 336 337 337 337 337 337 337 325 321 319 318 317 319 324 336 340 341 341 340 340 339 337 337 336 337 336 336 336 337 336 335 334 334 332 332 331 331 332 331 330 330 330 329 327 327 327 326 326 326 326 326 326 325 323 322 320 319 318 318 320 320 321 322 324 323 321 315 319 322 320 320 322 323 323 324 322 321 320 320 319 319
333 334 336 336 336 336 337 337 335 336 337 323 320 318 317 317 320 331 336 338 338 337 337 337 338 338 338 338 337 335 335 335 330 322 325 329 329 328 328 329 329 329 328 327 323 324 325 325 326 325 324 323 317 323 322 321 321 321 319 320 320 319 318 316 315 317 318 322 323 320 317 318 321 318 318 321 322 321 324 324 322 320 319 319 319
333 333 334 335 337 337 337 338 337 337 338 329 317 315 315 315 321 334 337 337 337 335 334 337 337 337 337 337 335 334 335 336 324 317 318 320 327 328 326 326 326 326 326 328 322 316 316 313 312 312 312 312 312 311 310 310 317 318 318 316 315 317 315 312 314 315 316 319 319 319 316 315 319 318 317 318 319 319 321 322 325 322 320 318 318
332 333 334 335 337 338 338 338 337 338 338 333 317 314 313 315 323 336 337 335 331 329 331 334 336 335 335 331 332 335 335 335 316 316 316 321 327 326 325 324 323 323 324 326 325 325 317 313 312 312 312 313 312 312 311 311 311 312 319 314 316 316 314 313 311 314 315 317 318 320 317 316 318 319 316 317 319 320 322 324 326 326 323 319 318
335 336 336 336 336 338 337 337 336 335 338 329 315 316 314 313 322 334 335 333 331 331 332 334 334 333 334 332 330 331 331 325 310 314 313 318 325 325 325 323 322 322 324 325 323 321 322 321 323 323 324 320 325 325 325 316 314 317 321 320 319 316 313 312 312 312 310 313 317 321 315 313 315 315 316 313 312 318 323 326 327 328 329 329 328
Wind_Speed
5 5 3 4 4 3 3 2 2 2 1 1 1 2 2 3 3 2 2 3 3 4 5 5 3 3 3 4 3 2 3 4 3 3 3 3 2 2 3 4 4 6 1 6 5 8 9 10 11 13 13 15 13 14 13 13 13 14 14 14 14 15 14 14 14 13 13 13 13 13 13 13 12 12 12 12 11 11 11 11 10 10 10 9 9
5 4 4 4 4 3 3 3 2 1 1 1 1 2 3 4 2 2 3 3 3 3 4 4 4 3 2 3 3 3 2 2 3 3 3 3 2 2 2 3 3 4 5 1 1 4 6 8 11 16 16 14 10 11 14 13 13 11 13 16 16 16 16 16 15 15 15 14 14 14 13 13 13 13 13 13 12 12 12 12 11 11 10 10 10
5 4 4 4 4 4 4 2 2 1 1 1 1 2 3 4 4 4 4 4 4 4 4 4 3 3 3 3 3 3 3 3 3 2 3 2 2 2 2 2 3 3 6 5 7 8 9 11 13 13 14 14 14 14 15 15 13 13 12 13 15 16 16 16 16 16 16 15 15 15 14 14 14 13 14 14 13 13 13 13 12 12 11 11 10
5 5 5 5 5 5 4 4 3 1 0 1 1 3 4 4 3 3 3 4 3 3 3 2 3 3 3 4 4 4 3 3 4 3 3 2 2 2 2 2 1 2 3 7 9 10 10 11 12 13 15 16 16 16 16 17 16 15 14 13 13 15 15 15 16 17 17 16 16 15 15 15 14 14 14 14 14 14 13 13 13 13 13 12 11
5 6 6 5 5 6 5 4 3 1 0 1 3 3 3 3 3 3 3 3 3 2 1 2 2 3 3 3 4 4 4 4 3 3 4 3 2 2 2 2 1 3 3 5 8 9 11 11 12 14 14 16 17 17 18 17 17 17 16 16 15 14 14 17 17 17 17 17 16 16 16 16 15 15 15 15 15 14 14 14 14 14 14 13 13
6 5 5 5 6 5 4 2 3 4 1 0 3 2 3 3 3 3 3 3 2 1 1 2 2 2 3 3 4 4 4 4 3 3 3 3 3 2 1 1 1 1 1 6 6 8 9 10 11 11 13 15 17 18 18 18 17 17 17 17 18 16 15 15 17 18 17 17 17 17 16 16 16 15 15 15 15 15 15 15 15 14 14 14 14
6 5 5 6 6 5 3 2 1 2 2 0 2 3 3 3 2 3 2 2 1 1 2 2 3 3 3 3 4 4 4 4 3 3 2 2 2 2 1 1 1 1 1 2 6 10 10 10 10 11 12 13 15 16 18 18 17 17 18 18 19 20 18 16 15 16 18 17 18 18 18 17 16 16 16 15 15 15 15 15 15 15 14 14 14
6 6 6 6 5 4 3 1 1 2 1 1 3 3 2 2 2 3 2 2 2 2 2 2 3 3 3 3 3 3 3 3 3 2 2 2 1 1 0 0 1 1 1 2 3 4 9 10 10 10 11 12 14 15 16 16 17 18 19 19 19 18 17 17 15 14 16 18 19 19 19 18 18 17 17 16 16 14 15 15 15 14 14 15 15
7 6 6 5 4 4 2 3 2 1 2 2 2 2 2 2 2 2 2 3 3 4 3 3 3 4 4 4 3 3 2 2 2 2 1 1 1 2 1 1 1 1 2 2 2 3 8 9 8 9 10 11 11 12 13 16 17 18 19 20 18 15 13 12 17 18 16 17 19 19 20 20 19 18 18 17 17 15 15 15 15 15 14 14 14
6 5 4 4 3 1 2 1 1 1 2 1 2 3 3 3 3 2 2 3 3 4 4 3 3 4 4 4 3 2 2 2 2 1 2 2 3 3 3 2 2 2 1 1 1 2 2 5 9 9 10 11 11 11 12 14 15 17 18 16 13 14 16 17 20 19 19 18 18 18 18 18 18 17 17 17 18 16 16 15 15 15 15 15 14
5 5 4 4 3 3 3 1 0 1 2 2 3 4 4 3 4 2 2 2 3 3 4 4 4 4 4 3 2 2 1 1 1 2 2 3 3 2 3 3 3 3 3 1 0 0 1 2 2 2 3 5 8 10 11 12 12 14 14 12 16 18 19 20 20 19 19 21 21 18 17 17 17 18 18 17 17 16 16 16 16 16 16 15 15
3 5 5 4 3 2 1 1 1 2 3 3 3 3 3 4 3 3 3 2 2 3 3 3 4 4 4 2 1 1 1 2 2 3 3 4 4 3 3 3 4 5 5 4 3 3 2 3 2 3 3 3 5 7 9 10 10 10 11 11 13 15 17 19 21 22 21 21 20 20 18 17 16 21 20 18 17 16 16 16 16 16 16 16 16
4 5 5 3 3 1 1 1 2 3 3 3 3 3 2 2 2 2 3 3 2 1 2 3 4 2 1 1 2 2 3 2 3 3 4 3 3 4 4 3 4 4 5 4 5 4 3 3 2 2 3 3 3 4 6 6 6 7 9 11 11 11 15 18 20 20 21 20 17 19 22 18 14 14 14 16 18 17 16 16 16 16 16 16 16
6 6 5 5 3 2 2 3 3 3 4 3 3 3 3 2 1 2 2 3 3 3 2 2 1 3 3 2 1 3 2 2 3 4 4 4 4 4 4 5 5 4 4 4 4 4 4 3 3 2 3 3 3 4 5 5 4 7 9 9 10 11 12 13 15 18 18 19 21 18 20 19 15 14 14 14 16 17 17 17 17 17 17 17 17
6 6 5 5 4 2 4 3 4 4 3 3 3 3 3 3 2 3 1 1 3 1 2 2 3 2 1 2 1 2 3 1 2 3 3 4 3 5 5 5 5 4 3 3 4 4 4 4 4 3 3 3 2 3 4 4 5 8 8 8 9 11 13 13 12 11 13 17 21 19 20 20 18 17 17 16 16 17 17 18 18 17 18 18 17
6 6 4 3 4 4 4 4 4 4 3 3 3 3 3 2 2 1 1 3 2 1 0 1 2 2 2 2 2 3 3 2 1 2 1 3 4 5 5 4 5 5 4 4 4 4 4 4 5 4 4 4 3 3 3 4 5 5 6 7 8 10 12 13 12 11 10 14 16 17 19 19 18 19 19 18 17 18 17 17 18 19 18 18 18
5 5 4 4 4 5 5 4 3 4 3 3 3 3 2 2 1 2 2 2 2 1 1 0 1 2 1 1 1 2 2 2 3 1 1 2 4 5 5 5 5 4 4 4 4 4 4 5 5 5 5 5 5 4 4 4 5 5 5 7 12 11 11 12 13 10 11 12 11 12 15 15 17 19 20 20 20 18 18 18 18 19 19 19 19
5 5 5 5 6 6 5 4 4 4 4 3 2 2 3 3 2 2 2 1 2 1 1 0 2 2 3 2 2 4 2 2 3 1 1 1 2 3 4 6 4 4 4 4 5 4 4 4 5 5 5 6 5 5 5 5 6 5 5 7 12 12 11 11 12 12 11 11 10 10 10 12 15 17 19 20 20 20 18 16 19 19 19 20 20
5 5 6 7 6 5 5 5 5 4 3 3 3 3 3 2 1 2 1 2 2 2 0 1 1 1 1 2 2 2 2 2 2 2 0 1 1 3 4 5 4 4 4 4 5 4 4 4 5 5 5 5 5 5 5 6 7 7 8 12 12 12 12 12 11 11 12 13 13 12 11 11 10 12 14 15 18 19 19 19 19 19 20 20 20
7 7 7 7 5 4 5 5 4 3 2 3 3 2 2 1 1 1 1 2 3 2 0 1 3 1 0 1 1 1 1 1 1 3 2 3 1 1 2 6 4 4 4 5 4 4 4 3 3 3 3 4 5 5 5 5 6 6 6 13 13 12 13 12 12 12 12 13 13 13 13 12 12 12 12 15 17 19 19 20 20 19 21 22 20
7 7 8 7 6 6 5 5 4 3 3 3 3 3 3 3 3 3 3 2 1 1 1 1 2 1 2 1 1 0 1 1 1 1 2 3 3 4 4 4 2 2 4 3 3 2 2 2 2 3 3 3 4 5 5 5 5 5 7 12 12 12 12 12 12 12 12 12 13 13 13 13 13 13 13 13 13 15 17 18 19 20 21 21 22
8 8 6 6 6 6 6 5 5 4 3 4 3 3 3 3 3 2 2 2 2 2 2 1 1 1 2 1 1 1 1 1 1 1 1 2 3 5 5 5 5 3 2 4 5 2 1 1 1 1 2 2 3 3 4 5 4 5 8 12 12 11 12 12 12 12 12 12 13 13 14 14 13 14 14 14 13 13 14 16 18 19 21 22 22
7 5 6 7 6 6 6 6 4 3 4 4 4 4 4 4 3 4 4 3 3 3 2 2 2 2 3 3 2 2 1 2 1 1 2 2 3 5 5 4 5 5 1 3 4 3 2 2 2 1 1 1 1 2 3 4 4 6 9 9 10 11 11 12 12 12 12 12 13 13 14 14 14 14 14 15 15 15 14 14 15 18 20 21 22
6 6 7 8 6 6 6 5 4 5 5 5 5 5 4 4 4 4 4 4 3 3 3 3 4 3 4 3 3 3 2 3 2 2 2 3 3 5 6 6 5 3 2 3 4 3 3 3 2 2 2 2 2 2 2 3 3 5 9 8 9 9 10 11 11 11 12 13 13 13 13 14 15 15 15 15 16 16 16 16 15 15 17 19 21
7 7 8 9 7 7 6 5 5 5 5 5 5 5 4 4 4 5 4 4 3 3 3 4 4 4 4 4 4 4 4 3 3 3 3 2 3 5 5 4 6 7 4 3 3 3 5 3 2 3 3 3 2 2 2 3 4 3 8 8 9 8 8 10 11 11 11 12 13 14 14 14 15 15 15 16 16 17 17 17 17 17 17 17 19
9 8 8 8 7 7 7 7 7 7 6 6 6 6 5 4 5 5 5 3 3 4 4 4 4 5 4 4 5 5 5 4 4 4 4 4 4 5 5 4 5 8 6 4 3 4 3 3 3 3 4 4 4 3 3 4 4 3 6 8 8 7 8 8 10 10 11 12 13 14 14 15 15 16 16 16 17 17 18 18 19 18 18 18 17
8 7 7 8 8 8 8 8 8 7 7 7 6 6 5 4 4 4 4 4 4 4 4 5 5 5 5 5 5 5 6 5 5 6 5 6 6 6 6 8 9 7 8 5 5 6 7 5 5 5 5 5 5 4 4 5 6 7 7 6 6 7 8 9 9 10 11 12 13 13 13 15 15 16 16 16 16 17 18 18 19 20 19 19 18
6 6 7 8 8 8 8 9 8 8 7 7 7 6 5 5 4 4 5 4 5 6 6 6 6 7 7 6 6 7 6 7 6 6 7 6 6 5 6 7 8 10 9 10 8 7 5 5 5 6 6 6 5 5 5 7 7 7 8 6 6 7 7 6 9 11 12 12 12 13 14 14 14 15 16 17 17 17 17 18 19 19 20 20 19
6 6 7 7 7 8 8 9 8 7 7 7 7 6 5 5 5 5 6 5 5 6 5 5 5 6 6 7 6 6 6 6 6 6 6 5 6 5 5 8 6 7 9 11 10 10 8 5 7 4 5 6 6 6 5 6 7 8 8 7 7 7 7 6 10 13 13 13 12 13 14 14 14 14 15 16 17 17 18 18 19 19 20 20 20
7 6 7 8 7 8 8 8 8 8 7 7 6 6 5 5 5 5 5 4 4 4 4 4 5 4 5 5 5 6 6 7 7 7 6 6 6 6 6 4 3 8 9 11 12 7 8 6 7 7 5 6 6 7 7 8 8 9 9 9 8 8 9 11 12 12 12 13 13 13 13 13 14 14 15 15 16 16 17 18 19 19 20 20 21
7 7 8 8 7 7 7 8 7 7 7 7 6 6 5 5 5 5 4 3 4 5 4 4 4 4 4 5 5 6 5 6 6 7 6 6 6 6 5 5 6 8 7 9 12 9 6 9 8 9 9 10 9 9 8 8 8 8 9 9 10 11 12 12 12 12 11 11 12 14 13 13 14 15 16 16 16 17 18 18 19 19 20 20 21
8 9 8 8 8 9 8 8 7 7 7 7 7 6 5 5 5 5 5 4 5 6 6 5 4 4 4 5 5 5 5 5 6 6 6 6 7 7 7 7 8 7 7 8 11 13 9 10 11 10 10 11 11 10 10 9 8 11 9 9 10 13 10 9 11 10 11 11 11 12 14 14 14 15 16 17 17 17 19 19 19 19 19 20 20
9 9 9 9 9 8 8 7 7 6 7 7 6 5 5 5 5 6 5 5 6 6 5 6 5 5 5 6 6 6 5 5 5 5 6 6 6 7 7 8 9 9 8 9 11 12 11 9 9 9 10 10 11 9 10 9 9 8 9 10 10 9 9 9 9 11 11 11 11 11 13 14 15 16 17 17 18 18 19 21 21 20 20 19 20
7 8 8 7 7 8 7 7 6 6 6 7 6 5 6 6 7 5 5 6 6 6 6 6 6 5 4 5 6 5 4 5 5 6 6 6 6 7 7 7 9 9 8 8 9 11 13 10 10 9 8 9 11 11 10 10 10 9 10 10 9 10 9 9 9 10 11 11 12 13 13 14 16 17 18 19 19 19 20 20 21 21 21 20 20
7 7 7 7 7 7 6 6 6 6 6 6 5 5 5 6 7 7 6 6 7 7 7 7 6 5 5 5 6 5 3 4 5 6 6 6 6 7 8 7 8 9 8 9 10 11 13 12 10 11 9 9 11 11 12 10 10 11 12 11 10 9 8 9 9 10 11 12 13 14 15 15 16 17 18 19 19 19 20 20 21 21 21 21 20
7 5 4 5 6 6 7 6 6 6 6 5 5 5 6 7 7 7 7 6 6 7 7 7 6 5 5 5 6 5 4 5 5 5 5 6 6 6 7 7 8 9 8 8 9 10 10 12 10 10 11 10 10 11 10 11 11 10 10 10 10 11 11 10 10 10 11 13 15 16 16 17 17 17 18 19 19 19 19 20 20 21 22 21 21
7 6 4 3 4 5 5 6 6 6 6 6 6 7 6 6 7 7 7 7 7 7 7 6 6 6 5 6 6 5 4 5 6 6 6 7 6 6 7 7 7 7 7 8 8 9 10 11 11 10 11 11 9 10 11 11 11 12 11 11 11 11 12 11 10 9 14 16 18 18 17 17 18 18 18 18 19 19 19 20 21 22 22 22 22
9 7 6 3 5 7 6 6 6 6 6 6 7 7 8 7 7 7 7 7 7 7 7 7 6 6 6 6 6 5 5 6 7 7 6 7 6 7 8 8 8 7 8 8 9 9 10 11 11 12 11 12 10 10 11 10 11 13 13 13 12 12 13 13 10 9 9 10 10 10 12 13 15 16 16 17 18 20 21 21 22 22 23 23 22
9 6 6 5 6 6 6 6 7 7 7 7 7 7 7 7 7 7 7 7 7 7 7 7 7 6 6 6 6 6 7 7 8 7 7 7 6 8 8 8 8 8 8 8 8 9 9 10 10 10 11 11 11 11 11 11 12 12 12 13 13 12 12 13 14 12 11 12 15 17 17 17 19 18 19 19 20 21 22 23 23 23 24 24 24
9 8 8 8 7 7 7 7 7 6 6 7 7 7 7 7 7 7 7 8 8 8 7 7 7 7 6 7 7 7 7 7 7 7 7 7 6 8 8 8 8 8 9 9 8 9 9 10 10 11 10 10 11 12 11 11 12 11 9 10 13 13 14 13 14 15 14 15 15 13 13 15 15 16 17 19 20 21 22 22 24 25 26 25 25
9 8 6 6 7 8 8 7 7 6 7 7 7 7 7 8 8 8 8 8 8 8 8 8 7 7 6 7 7 8 8 7 7 7 7 6 6 7 8 8 9 8 8 9 8 7 8 10 11 10 11 11 11 12 12 11 12 13 12 11 13 13 13 15 15 15 14 16 16 16 16 14 16 15 12 13 13 16 18 19 21 23 23 23 23
6 6 6 10 10 10 9 8 8 7 7 6 9 13 10 8 8 7 7 7 8 8 7 7 7 7 8 7 7 10 8 9 9 9 10 11 10 9 9 8 9 8 9 9 8 8 8 10 11 11 12 12 12 12 13 13 13 13 14 13 13 14 13 14 16 13 13 15 17 17 17 12 13 18 16 14 14 14 13 14 15 17 17 17 20
6 5 7 10 11 11 10 9 9 8 8 7 13 13 13 14 10 8 7 7 8 8 8 7 8 8 8 8 7 7 9 9 9 10 11 11 10 12 13 13 11 10 9 10 10 9 9 10 11 11 12 14 14 14 14 15 13 13 13 13 13 13 14 16 17 15 11 14 15 16 18 15 15 16 16 16 16 15 15 16 20 21 20 21 22
8 7 10 11 11 9 8 11 11 9 9 11 14 14 14 14 13 9 8 8 8 8 8 8 7 8 8 7 5 3 4 6 5 6 8 10 10 11 11 11 12 12 12 11 10 10 10 10 10 9 11 12 13 12 14 14 14 14 13 14 14 14 16 16 16 17 14 13 15 15 20 15 12 15 16 15 15 15 16 18 20 21 21 22 22
6 9 10 10 11 11 10 12 11 10 10 11 14 14 14 14 14 12 9 9 9 8 8 8 8 8 5 1 4 6 5 8 6 5 5 5 6 8 9 10 11 12 11 12 14 13 10 10 10 11 11 12 12 12 12 13 12 13 14 13 13 15 14 16 17 18 17 15 16 18 19 15 11 14 16 16 16 16 19 20 21 22 23 24 23
8 9 11 13 11 11 11 11 10 10 10 11 13 14 14 14 14 11 9 9 8 8 8 8 6 4 2 4 8 8 7 5 4 3 4 5 5 6 6 7 7 7 9 13 12 13 13 9 9 11 12 11 11 12 13 13 13 14 13 14 15 16 16 17 19 19 18 15 16 17 20 17 13 15 16 16 16 20 18 21 22 22 22 23 23
11 11 12 12 11 11 12 11 10 10 10 12 13 14 14 13 14 11 7 6 6 6 6 6 5 8 9 8 8 8 7 5 2 1 3 4 4 5 7 8 8 8 8 8 6 6 5 7 8 10 11 11 12 13 14 13 14 12 12 14 15 15 16 18 17 17 17 15 16 14 17 16 13 17 17 16 19 19 19 21 22 22 23 24 23
10 10 11 12 12 12 11 10 10 11 11 12 13 13 12 13 9 5 6 6 6 6 6 7 7 6 7 7 6 6 5 5 5 5 1 2 4 6 7 8 8 8 8 3 3 4 6 7 7 9 11 12 12 12 13 12 11 12 11 12 13 13 14 14 16 16 16 15 13 13 14 15 15 18 18 19 19 21 19 20 22 22 22 22 23
11 13 13 12 11 10 10 10 11 10 10 9 11 10 9 8 4 5 5 6 4 4 8 8 6 6 5 5 5 5 4 4 6 5 3 2 4 6 7 8 8 9 9 7 10 11 9 10 11 13 15 15 17 18 17 17 12 11 11 12 13 11 12 15 15 15 15 14 10 10 13 17 18 17 20 17 20 20 19 19 20 21 20 21 22
12 13 12 10 9 9 11 11 10 10 8 2 8 7 9 9 7 5 3 1 4 3 9 9 5 4 4 5 5 5 4 3 7 3 2 3 5 6 7 8 9 9 9 8 7 4 8 11 13 15 16 16 16 17 18 18 17 11 9 11 11 11 14 13 15 15 16 16 13 11 11 15 17 17 17 18 16 15 16 16 17 18 19 17 22
9 8 9 8 8 8 8 8 3 5 5 2 9 6 6 7 7 5 4 4 6 8 7 6 4 4 4 5 9 4 2 3 5 4 3 5 5 6 6 7 8 9 8 8 8 10 11 11 9 10 8 9 9 9 10 11 12 12 10 10 10 11 13 15 16 15 17 12 11 9 11 16 14 17 14 13 14 14 13 14 15 15 15 15 14
Wind_Direction
263 269 271 273 277 274 272 265 254 277 294 315 347 331 323 329 338 332 344 345 338 345 339 331 325 324 322 320 314 292 296 301 307 306 292 297 302 8 341 2 356 66 146 198 223 175 193 199 198 215 222 229 218 228 234 243 251 243 230 223 217 217 218 219 218 220 221 223 223 227 232 234 232 230 229 230 231 232 232 234 233 234 235 235 236
262 266 269 276 275 272 263 263 264 249 272 305 333 306 317 324 331 328 328 331 329 335 329 328 326 334 327 320 309 310 311 314 323 324 322 299 318 341 24 358 19 110 187 260 191 219 202 206 223 223 221 232 237 236 233 232 237 246 246 236 226 220 219 218 218 218 220 224 225 226 226 230 235 236 233 231 232 233 235 237 236 236 235 236 238
268 269 272 274 272 268 269 268 280 300 313 289 251 297 305 316 327 322 319 318 317 329 326 328 330 325 340 319 319 307 312 317 315 318 323 336 334 344 357 22 26 92 146 180 192 207 208 204 216 230 229 231 233 233 233 231 238 244 251 251 239 232 226 224 223 222 220 221 223 225 226 226 229 235 241 239 235 234 235 238 240 239 237 237 237
264 268 268 271 274 272 278 287 291 284 277 304 300 306 309 319 321 320 316 307 308 317 328 318 333 338 328 324 322 314 316 322 308 330 321 328 325 336 332 16 96 75 151 180 186 200 212 214 217 223 224 226 229 232 234 232 234 237 244 253 257 248 238 232 228 228 226 222 222 223 224 225 225 224 230 237 243 240 238 240 243 244 242 239 239
259 261 268 272 279 280 278 281 286 282 142 344 307 303 303 287 296 312 300 299 308 318 296 307 338 346 324 334 322 319 321 312 313 317 329 323 326 325 296 315 337 161 156 187 180 192 201 212 212 210 219 226 229 230 232 233 233 235 236 241 249 255 249 240 235 232 231 228 225 222 223 224 225 223 224 227 232 240 243 242 243 245 247 246 243
260 261 262 266 264 270 281 311 334 316 288 349 293 291 276 291 295 292 299 296 301 325 325 331 344 329 326 336 316 329 325 317 332 333 326 326 337 305 308 274 274 298 163 173 206 208 213 219 216 211 217 222 225 229 232 234 236 237 238 240 239 242 246 248 240 236 233 231 229 227 224 223 224 224 225 224 225 229 235 241 243 246 247 247 247
251 253 250 253 259 266 271 251 255 268 281 245 261 256 270 280 293 293 293 278 291 310 319 329 327 323 327 327 324 330 324 328 331 323 322 330 304 324 310 265 230 220 197 202 187 211 221 226 224 221 227 227 228 231 235 235 237 238 237 237 240 241 240 240 245 242 239 234 232 230 227 225 223 225 226 226 224 224 229 235 238 241 244 248 249
243 241 246 246 255 253 243 228 242 251 298 294 262 273 273 275 275 275 288 302 312 297 293 302 306 314 326 318 323 330 324 333 335 344 15 321 4 355 332 275 244 192 234 213 205 190 212 227 224 225 228 230 233 237 239 240 240 241 241 239 238 244 248 249 249 251 247 241 237 230 230 228 225 224 224 227 229 226 227 230 234 235 238 241 244
241 240 246 248 239 242 218 198 178 264 268 264 290 291 272 256 241 265 294 294 291 296 297 305 319 321 318 326 348 348 355 0 4 17 23 39 38 62 55 39 21 293 218 228 231 219 188 220 239 234 242 246 246 247 247 247 245 239 237 239 244 250 257 270 268 261 251 248 246 243 234 228 228 225 224 224 227 230 229 230 232 232 233 235 237
243 236 234 241 242 232 280 216 169 217 250 268 264 251 244 251 260 254 272 279 287 300 302 311 322 316 316 332 1 9 30 11 21 26 72 71 68 53 46 35 30 28 353 311 280 250 247 192 225 239 238 243 250 250 253 256 258 258 255 256 257 255 252 241 243 253 257 251 246 244 245 242 231 224 224 223 226 227 229 232 233 232 232 233 235
230 214 210 205 204 213 208 154 150 241 249 247 248 251 253 255 274 277 281 282 298 300 304 308 302 308 306 340 5 23 37 45 52 65 67 66 57 52 56 40 38 45 38 38 107 51 323 312 294 277 244 247 269 274 275 278 280 282 284 266 245 241 244 245 247 251 255 256 252 246 243 241 245 242 228 225 227 227 229 231 234 234 233 233 234
180 225 227 217 228 225 213 65 182 227 236 241 254 267 281 273 266 283 277 262 250 283 286 301 307 304 309 334 43 44 77 69 84 82 85 73 63 33 42 51 41 38 36 38 29 50 29 20 356 337 322 331 341 317 311 312 311 310 305 281 260 253 250 248 245 243 246 252 253 252 247 244 240 242 244 240 231 229 230 230 232 234 235 234 234
235 239 229 221 223 188 121 169 199 222 232 251 272 279 283 285 293 282 289 295 291 289 331 323 321 305 322 28 82 110 123 79 85 86 82 81 66 57 48 54 49 39 43 36 37 41 42 40 24 348 339 324 313 320 318 314 300 305 311 314 308 284 263 254 251 248 245 249 257 259 258 250 243 246 240 237 242 237 232 231 231 232 234 236 236
216 220 230 228 211 180 189 198 204 221 236 259 259 255 258 253 268 259 297 319 317 316 345 310 315 348 345 10 91 145 136 70 87 76 83 72 72 66 62 60 50 41 37 40 43 40 43 42 34 21 4 344 337 333 331 334 339 352 326 320 313 305 299 288 265 255 253 250 248 250 259 257 248 247 246 243 242 241 241 236 233 232 233 235 236
226 222 224 211 205 188 201 208 217 224 242 253 251 253 255 259 256 291 299 289 288 325 342 300 331 19 28 274 83 210 156 168 100 84 79 75 65 62 53 64 57 46 33 35 38 31 33 30 32 29 23 9 355 339 334 333 348 334 336 335 328 324 318 312 303 288 269 256 261 247 246 255 261 256 248 249 247 244 240 242 239 234 234 234 236
215 212 196 186 190 199 202 212 217 226 246 250 253 257 246 232 230 262 308 301 273 179 86 305 326 313 291 360 10 309 186 102 42 97 56 74 57 65 56 63 63 45 40 40 36 28 32 33 31 28 27 26 17 11 347 348 343 341 353 345 344 335 326 319 322 323 300 272 262 254 243 240 239 246 252 246 241 241 241 241 244 242 236 235 236
198 195 193 192 193 203 210 214 220 229 235 248 252 259 257 243 241 263 244 270 270 268 185 267 302 322 326 264 209 214 19 22 326 152 347 112 55 63 62 58 56 47 44 46 40 33 33 39 28 31 29 24 24 18 13 7 5 1 350 7 5 355 347 340 336 327 315 308 289 264 254 249 247 250 250 252 256 251 245 242 240 241 243 239 236
192 192 200 200 202 206 212 209 218 217 221 232 256 255 242 245 225 248 246 201 294 260 221 92 327 270 268 284 346 346 348 0 295 92 357 50 79 69 61 45 48 47 48 47 45 46 38 42 36 33 30 29 26 22 12 14 10 7 4 11 359 360 358 356 350 341 337 319 316 304 279 260 254 254 257 257 255 254 251 247 247 243 239 240 239
192 195 203 204 205 203 207 213 213 212 205 214 221 239 245 253 223 226 181 150 208 255 246 315 197 200 263 314 347 32 8 317 5 308 135 103 36 31 55 49 35 44 50 41 44 47 43 39 38 38 34 30 29 25 21 17 11 8 14 9 5 4 4 358 352 349 342 339 338 335 327 307 291 274 267 266 263 260 256 250 246 245 244 239 239
206 200 203 204 201 196 203 208 214 213 205 216 227 229 223 203 196 164 152 185 206 263 264 242 271 170 258 265 60 78 38 98 22 357 340 334 105 29 36 23 23 36 27 37 43 42 36 36 36 36 32 32 26 25 23 17 12 4 11 4 2 3 3 357 352 350 348 345 342 341 337 334 324 306 287 276 271 268 265 262 258 248 243 243 240
206 197 196 196 192 197 195 202 204 202 212 232 237 213 216 194 174 176 188 193 241 319 258 212 226 208 181 160 186 39 159 70 75 46 339 320 320 341 348 359 334 51 18 19 46 53 35 47 28 22 36 32 27 22 20 18 11 2 360 354 354 357 358 354 350 349 351 347 343 341 337 332 327 323 318 310 295 282 274 270 264 257 252 248 246
197 198 183 190 194 192 194 197 201 207 215 225 216 205 193 201 195 198 183 188 185 218 250 190 229 212 236 176 217 170 216 196 204 213 195 236 285 310 322 334 342 357 346 360 357 8 330 359 344 35 24 31 27 24 17 10 12 5 352 343 346 348 350 348 345 344 345 342 342 340 338 333 329 324 320 316 310 303 295 281 268 262 257 253 249
185 178 188 187 190 192 196 194 199 193 204 199 209 210 200 198 185 173 182 197 188 187 196 231 237 217 207 222 228 228 274 295 268 215 253 271 287 302 323 338 323 319 341 340 325 317 311 266 291 332 342 353 18 15 9 357 352 355 337 342 337 336 339 339 338 337 335 333 333 334 333 331 328 326 321 315 310 306 300 298 290 277 265 259 256
177 176 184 186 183 188 191 186 190 204 206 206 209 207 203 186 183 186 190 196 196 191 193 205 222 225 231 228 236 243 234 249 258 235 236 270 287 301 311 324 307 277 304 307 289 270 302 276 267 307 301 319 313 344 337 326 345 344 338 337 329 325 326 327 327 329 327 326 324 325 324 324 324 323 321 317 311 306 302 299 295 290 284 276 265
180 183 184 181 180 180 179 186 196 205 205 201 200 199 196 194 192 198 197 199 202 209 214 219 220 230 234 229 241 247 249 243 252 239 238 262 275 288 293 313 297 303 311 322 304 301 294 274 263 274 292 278 280 274 304 311 324 340 328 324 317 312 309 312 314 315 315 314 316 317 318 319 319 319 318 316 313 309 304 299 295 292 288 284 281
179 185 183 179 182 183 182 192 201 202 202 202 203 200 202 203 204 209 209 208 212 215 232 238 237 246 249 243 242 244 254 253 245 244 241 232 243 257 290 281 276 293 296 282 249 290 246 227 262 267 269 269 273 277 288 312 305 304 312 306 304 298 299 291 301 303 303 307 306 309 311 313 314 314 314 312 311 310 306 302 297 293 289 286 284
179 182 173 178 184 185 188 195 196 199 202 205 207 206 205 211 219 226 226 216 219 223 232 236 243 246 244 244 252 251 254 251 249 249 249 250 270 284 290 297 301 291 294 280 273 246 271 278 262 266 257 259 261 267 282 302 301 291 300 298 296 293 285 291 294 299 297 299 300 302 305 307 307 308 307 307 306 305 304 301 298 293 288 285 283
178 174 182 188 190 189 190 196 195 199 204 209 210 209 203 206 213 219 228 215 222 222 230 232 239 246 253 252 249 262 256 259 255 249 244 258 263 270 270 276 283 297 303 299 294 290 259 268 257 240 256 254 255 266 270 284 293 299 293 297 299 295 284 275 294 298 296 293 296 301 301 300 297 298 300 301 301 299 299 297 295 291 287 283 280
176 183 186 193 193 193 193 197 196 200 206 211 212 210 202 206 213 215 227 219 216 222 224 226 237 247 252 252 256 263 264 254 253 253 249 243 239 241 247 268 281 287 295 299 298 301 303 278 297 277 230 246 253 265 271 282 288 291 300 294 293 291 290 284 289 291 290 292 293 294 296 296 294 292 292 296 297 295 294 294 292 289 284 281 278
179 181 189 191 194 194 196 199 200 202 207 211 212 211 206 215 219 223 235 225 221 226 227 234 243 247 251 254 251 260 262 259 260 259 246 237 238 234 239 230 210 255 277 291 295 289 291 279 272 288 262 249 253 258 264 276 278 279 288 288 287 288 293 288 282 275 277 284 289 289 288 290 293 294 293 293 292 290 290 289 289 286 284 279 276
180 180 189 190 190 193 200 203 202 202 204 211 212 213 210 226 222 232 226 217 236 245 245 237 249 243 247 256 251 257 258 262 266 267 260 247 245 240 233 225 225 231 248 275 286 284 280 290 286 281 288 286 278 278 273 271 269 266 280 284 285 286 282 281 271 267 267 271 277 285 286 286 288 291 293 291 289 287 287 285 284 284 283 281 277
185 182 185 189 188 194 200 207 206 205 205 213 213 215 214 225 232 236 235 220 234 247 256 245 243 239 245 251 251 255 256 261 266 265 264 260 262 262 256 251 253 232 235 255 267 279 280 288 292 283 279 283 280 274 275 273 268 251 266 274 278 282 280 285 276 266 266 263 265 271 281 286 286 286 287 289 286 283 284 283 281 280 279 278 276
181 181 181 183 183 190 197 201 205 203 206 212 209 212 211 221 224 233 236 225 238 245 246 255 248 241 243 248 253 254 250 253 262 267 261 260 256 257 258 261 262 259 247 248 266 277 282 286 296 292 291 289 281 272 271 275 279 277 274 275 275 276 282 283 286 276 267 266 266 268 275 280 283 283 283 284 284 280 279 281 280 278 276 275 274
175 176 178 180 182 185 195 197 201 207 208 213 215 206 213 218 228 227 237 234 239 245 250 256 260 251 240 243 253 258 238 239 256 257 262 259 255 253 255 249 259 264 248 246 259 275 283 289 288 288 272 279 284 281 277 280 285 284 283 283 279 278 274 278 284 287 278 271 274 275 274 275 278 280 280 280 281 281 279 278 278 276 274 272 270
175 182 178 179 178 183 189 196 200 206 207 213 212 206 213 221 234 241 241 243 245 252 250 253 255 251 244 247 260 266 235 247 249 256 254 253 254 254 254 250 253 254 252 243 262 273 280 284 290 291 289 291 287 290 293 291 293 292 291 286 279 278 272 271 277 284 283 275 274 274 276 275 275 276 277 278 278 278 277 276 274 274 272 270 267
167 174 182 183 182 184 192 197 201 207 208 209 213 211 218 223 230 237 240 238 242 245 251 257 258 245 251 260 267 271 262 264 260 253 245 243 243 244 248 247 246 250 252 249 248 267 277 287 289 292 297 295 292 291 293 294 291 288 284 286 281 276 268 267 272 278 282 278 274 272 272 273 271 269 270 272 273 273 272 271 270 270 269 266 264
162 157 179 194 193 194 201 199 202 207 210 212 216 219 216 220 227 235 240 241 241 243 246 249 248 251 253 259 269 268 257 264 263 254 248 242 243 244 248 246 245 246 249 250 258 258 271 278 284 285 291 289 286 287 290 291 293 290 287 282 282 282 280 271 272 272 273 266 264 264 260 261 265 265 263 265 267 269 269 267 266 266 265 263 261
168 156 154 180 210 215 209 203 200 208 209 216 221 223 225 220 220 231 237 241 243 245 245 243 241 239 247 254 258 256 250 253 264 265 259 255 251 248 249 251 250 249 249 253 259 265 268 274 280 289 289 293 291 289 292 287 290 295 296 294 289 284 285 283 271 275 279 282 286 278 273 264 262 261 260 261 266 268 268 266 264 262 262 260 258
148 143 169 196 232 231 220 212 212 212 215 218 221 222 225 222 221 225 232 236 240 241 241 240 241 237 241 244 248 243 245 245 255 261 265 266 263 265 261 259 257 252 255 258 262 271 272 277 279 280 287 288 290 291 293 290 287 290 292 295 293 295 294 293 295 294 291 287 281 271 269 272 275 275 273 267 265 265 264 264 262 259 259 257 256
147 168 175 204 224 229 226 216 218 215 215 219 220 223 222 226 224 226 230 236 238 237 236 236 237 240 238 244 247 244 239 241 244 255 259 268 272 275 272 268 265 262 266 274 270 277 279 281 282 286 284 288 290 288 290 292 291 290 288 296 297 301 301 299 297 299 299 296 294 289 278 272 267 257 251 253 253 253 256 258 257 253 253 253 253
163 179 177 212 228 236 231 221 219 215 218 223 222 219 223 224 226 232 231 233 236 238 237 236 231 232 238 242 243 244 235 229 235 248 264 273 277 277 278 277 276 270 270 278 273 276 279 283 285 283 284 284 286 293 299 299 298 300 302 296 290 290 293 298 298 298 299 298 295 294 293 294 293 289 287 285 278 276 274 266 269 259 248 246 246
168 143 173 221 225 224 220 216 215 217 220 221 224 224 225 230 226 228 230 233 236 237 238 242 239 233 234 237 238 233 227 227 233 237 243 247 243 253 271 281 281 278 277 281 275 275 278 279 283 288 288 288 292 297 299 297 298 298 297 298 295 298 297 292 292 292 297 298 299 297 294 288 289 293 285 275 274 268 273 276 276 274 269 255 243
176 170 197 222 228 229 221 215 215 217 222 223 225 222 221 226 233 236 232 232 231 231 234 239 247 245 237 230 242 229 221 228 233 232 242 243 245 245 250 254 261 269 281 279 279 281 277 277 282 282 285 288 291 298 298 299 299 299 300 299 299 299 298 299 299 299 293 299 298 293 290 290 289 282 278 273 275 269 265 268 263 261 254 253 257
171 198 217 223 230 224 219 225 224 220 222 223 222 222 221 221 221 231 236 235 231 231 233 235 242 246 243 239 238 243 240 232 233 227 224 230 235 244 248 249 252 249 244 258 268 273 271 277 278 277 286 288 295 297 299 303 304 305 302 301 299 298 296 294 294 293 300 299 293 292 291 288 279 281 279 271 272 271 269 272 270 261 256 253 250
206 200 223 223 226 222 223 224 225 222 227 218 217 221 222 222 221 222 241 241 237 241 239 237 243 245 238 195 273 246 234 194 220 240 261 271 242 231 239 248 248 245 243 241 245 256 271 275 277 283 284 294 292 290 298 304 307 296 301 300 299 295 294 292 289 293 298 302 294 289 286 284 284 276 268 269 272 277 283 276 264 254 250 249 246
210 223 224 224 220 216 220 223 225 225 227 217 212 217 220 222 223 215 239 243 247 250 250 249 250 274 277 231 249 259 255 226 226 236 263 269 287 290 284 283 287 267 220 212 227 239 248 261 272 279 286 289 285 290 294 297 296 298 302 298 297 294 292 287 290 291 291 292 284 289 288 285 281 278 274 276 283 287 283 276 266 260 254 248 244
207 217 226 227 224 221 223 223 228 232 233 217 211 216 220 222 226 220 244 252 256 258 260 263 243 248 242 241 242 250 253 253 251 43 284 287 290 290 287 287 288 291 299 292 262 249 244 262 274 279 284 283 283 289 293 295 296 298 295 293 292 290 288 288 286 285 287 286 283 277 275 284 292 283 282 284 291 290 285 280 265 256 250 244 242
215 221 228 233 229 223 220 219 226 234 238 209 208 214 217 224 226 229 241 249 255 254 254 254 254 247 243 235 237 237 243 257 107 99 55 309 291 282 281 282 284 286 287 250 188 271 281 292 290 291 292 298 306 294 290 291 295 292 292 291 290 288 288 291 292 296 293 296 289 282 278 285 285 284 289 294 293 290 286 284 276 261 249 241 236
211 220 225 227 229 225 221 217 222 235 244 214 198 207 214 221 195 231 233 244 260 338 322 299 278 261 244 225 221 236 238 245 104 106 124 248 271 268 275 281 284 290 287 286 191 201 228 250 257 264 268 272 273 273 272 270 264 279 288 291 287 291 298 297 294 294 293 298 292 276 283 290 286 289 293 293 291 286 282 280 278 266 247 234 230
213 219 221 226 230 228 228 229 226 236 249 229 165 175 204 205 208 233 235 48 40 285 261 263 253 253 234 196 210 227 229 220 108 123 147 228 256 268 275 276 285 286 289 298 306 277 193 222 242 250 254 257 261 264 265 264 263 252 273 280 289 299 294 289 291 293 294 296 286 279 280 272 286 292 293 293 285 271 269 269 269 268 255 232 224
221 224 221 222 226 226 232 239 226 251 271 121 140 184 196 181 189 208 169 171 215 220 228 233 221 229 207 197 208 227 245 96 115 149 178 219 248 263 268 279 279 285 297 319 309 310 313 313 309 303 289 265 263 276 280 268 254 250 255 262 278 287 290 292 292 294 294 284 273 280 275 286 294 291 291 294 286 277 270 272 272 267 257 254 238